{"data":{"norad_id":66808,"epoch":"2026-09-20T22:21:21.835872Z","epoch_age_seconds":49704,"freshness":"FRESH","line1":"1 66808U 25278T   26263.93150273  .00010189  00000+0  37922-3 0  9995","line2":"2 66808  43.0018  91.3229 0001664  15.7449 344.3454 15.27583724 45076","mean_motion":15.27583724,"eccentricity":0.0001664,"inclination_deg":43.0018,"raan_deg":91.3229,"arg_perigee_deg":15.7449,"mean_anomaly_deg":344.3454,"bstar":0.00037922,"rev_number":4507,"period_min":94.266518906691,"perigee_km":481.89624555575,"apogee_km":484.17964457746,"semimajor_km":6861.1749450666,"source":"CELESTRAK","updated_at":"2026-09-21T09:00:36.016828Z"}}